Location: Izdebno
(52.6670°N, 16.2170°E)
Time: 13:18:31
(UTC+02:00)

A-11 Canister half - Pass Details

Date: 01 March 2024
Orbit: 1525 x 1683 km, 47.3° (Epoch: 24 April)

Event Time Altitude Azimuth Distance (km) Brightness Sun altitude
Rises 21:36:28 0° 255° (WSW) 4,763 12.0 -35.1°
Reaches altitude 10° 21:39:37 10° 253° (WSW) 3,760 11.3 -35.5°
Enters shadow 21:46:54 53° 222° (SW) 1,839 9.2 -36.2°
